Rochelle, IL

1:37 AM CDT on October 22, 2017 (GMT -0500)
Rochelle

Weather History for KRPJ - August, 2014

Change the Weather History Date:

Sunday, August 31, 2014

  Actual Average (KRFD) Record (KRFD)
Temperature  
Mean Temperature 72 °F -  
Max Temperature 83 °F 80 °F 101 °F (1953)
Min Temperature 60 °F 59 °F 41 °F (1915)
Cooling Degree Days 6    
Growing Degree Days 22 (Base 50)    
Moisture  
Dew Point 66 °F    
Average Humidity 82    
Maximum Humidity 97    
Minimum Humidity 56    
Precipitation  
Precipitation 0.00 in - - ()
Sea Level Pressure  
Sea Level Pressure 29.91 in    
Wind  
Wind Speed 2 mph (South)    
Max Wind Speed 10 mph    
Max Gust Speed -    
Visibility 9 miles    
Events      
Averages and records for this station are not official NWS values.
T = Trace of Precipitation, MM = Missing Value Source: NWS Daily Summary

Daily Weather History Graph

Daily Weather History Graph

Search for Another Location

Airport or City:

Trip Planner

Search our weather history database for the weather conditions in past years. The results will help you decide how hot, cold, wet, or windy it might be!

Date:

Astronomy

Aug. 31, 2014 Rise Set
Actual Time 6:21 AM CDT 7:31 PM CDT
Civil Twilight 5:52 AM CDT 8:00 PM CDT
Nautical Twilight 5:17 AM CDT 8:34 PM CDT
Astronomical Twilight 4:41 AM CDT 9:10 PM CDT
Moon 12:13 PM CDT (8/31) 10:40 PM CDT (8/31)
Length of Visible Light 14h 07m
Length of Day
13h 10m
Waxing Crescent, 32% of the Moon is Illuminated
Aug 31
Waxing Crescent
Sep 2
First Quarter
Sep 8
Full
Sep 15
Last Quarter
Sep 24
New

Hourly Weather History & Observations

Time (CDT) Temp. Heat Index Dew Point Humidity Pressure Visibility Wind Dir Wind Speed Gust Speed Precip Events Conditions
12:15 AM 64.4 °F - 62.8 °F 94% 29.92 in 10.0 mi Calm Calm - N/A   Clear
12:35 AM 63.5 °F - 62.1 °F 95% 29.93 in 10.0 mi Calm Calm - N/A   Clear
12:55 AM 63.5 °F - 62.1 °F 95% 29.93 in 10.0 mi Calm Calm - N/A   Clear
1:15 AM 63.5 °F - 61.9 °F 94% 29.93 in 10.0 mi Calm Calm - N/A   Clear
1:35 AM 63.1 °F - 61.9 °F 96% 29.92 in 10.0 mi Calm Calm - N/A   Clear
1:55 AM 63.7 °F - 62.4 °F 96% 29.92 in 10.0 mi Calm Calm - N/A   Clear
2:15 AM 64.0 °F - 62.6 °F 95% 29.92 in 10.0 mi Calm Calm - N/A   Clear
2:35 AM 63.0 °F - 61.7 °F 96% 29.92 in 10.0 mi Calm Calm - N/A   Clear
2:55 AM 61.9 °F - 60.8 °F 96% 29.92 in 7.0 mi Calm Calm - N/A   Scattered Clouds
3:15 AM 62.2 °F - 61.0 °F 96% 29.92 in 7.0 mi Calm Calm - N/A   Scattered Clouds
3:35 AM 62.1 °F - 61.0 °F 96% 29.93 in 7.0 mi Calm Calm - N/A   Scattered Clouds
3:55 AM 61.7 °F - 60.8 °F 97% 29.93 in 7.0 mi Calm Calm - N/A   Scattered Clouds
4:15 AM 62.2 °F - 61.2 °F 96% 29.93 in 7.0 mi Calm Calm - N/A   Scattered Clouds
4:35 AM 62.6 °F - 61.3 °F 96% 29.94 in 10.0 mi Calm Calm - N/A   Scattered Clouds
4:55 AM 61.9 °F - 60.8 °F 96% 29.94 in 10.0 mi Calm Calm - N/A   Clear
5:15 AM 61.3 °F - 60.1 °F 96% 29.94 in 7.0 mi Calm Calm - N/A   Clear
5:35 AM 61.3 °F - 60.3 °F 96% 29.94 in 7.0 mi Calm Calm - N/A   Clear
5:55 AM 61.2 °F - 60.1 °F 96% 29.94 in 7.0 mi Calm Calm - N/A   Clear
6:15 AM 60.6 °F - 59.4 °F 96% 29.95 in 7.0 mi Calm Calm - N/A   Clear
6:35 AM 60.6 °F - 59.5 °F 96% 29.95 in 5.0 mi Calm Calm - N/A   Clear
6:55 AM 61.2 °F - 60.1 °F 96% 29.95 in 3.0 mi Calm Calm - N/A   Clear
7:15 AM 62.8 °F - 61.7 °F 96% 29.95 in 4.0 mi Calm Calm - N/A   Clear
7:35 AM 64.6 °F - 63.3 °F 96% 29.95 in 5.0 mi Calm Calm - N/A   Clear
7:55 AM 67.1 °F - 65.5 °F 95% 29.95 in 7.0 mi Calm Calm - N/A   Clear
8:15 AM 68.5 °F - 66.4 °F 93% 29.95 in 10.0 mi Calm Calm - N/A   Clear
8:35 AM 70.7 °F - 67.3 °F 89% 29.95 in 10.0 mi Calm Calm - N/A   Clear
8:55 AM 72.1 °F - 68.0 °F 87% 29.94 in 10.0 mi Calm Calm - N/A   Clear
9:15 AM 73.4 °F - 68.7 °F 85% 29.94 in 10.0 mi Calm Calm - N/A   Clear
9:35 AM 74.7 °F - 68.5 °F 81% 29.95 in 10.0 mi Calm Calm - N/A   Clear
9:55 AM 75.4 °F - 68.2 °F 78% 29.96 in 10.0 mi Calm Calm - N/A   Clear
10:15 AM 76.5 °F - 68.7 °F 77% 29.96 in 10.0 mi South 4.6 mph - N/A   Clear
10:35 AM 76.8 °F - 68.7 °F 76% 29.95 in 10.0 mi South 4.6 mph - N/A   Clear
11:15 AM 78.4 °F - 68.9 °F 72% 29.95 in 10.0 mi South 5.8 mph - N/A   Clear
12:15 PM 80.8 °F 83.1 °F 66.7 °F 62% 29.95 in 10.0 mi SSW 8.1 mph - N/A   Scattered Clouds
12:35 PM 81.1 °F 83.5 °F 67.1 °F 62% 29.95 in 10.0 mi South 4.6 mph - N/A   Scattered Clouds
12:55 PM 81.5 °F 83.7 °F 66.6 °F 60% 29.94 in 10.0 mi SSW 6.9 mph - N/A   Scattered Clouds
1:15 PM 81.5 °F 83.9 °F 66.7 °F 61% 29.94 in 10.0 mi SSW 4.6 mph - N/A   Scattered Clouds
1:35 PM 81.7 °F 84.3 °F 67.5 °F 62% 29.94 in 10.0 mi SSE 6.9 mph - N/A   Clear
1:55 PM 81.7 °F 84.2 °F 67.3 °F 61% 29.93 in 10.0 mi South 6.9 mph - N/A   Clear
2:15 PM 82.0 °F 84.3 °F 66.6 °F 59% 29.92 in 10.0 mi South 4.6 mph - N/A   Clear
2:35 PM 82.4 °F 84.4 °F 65.7 °F 57% 29.91 in 10.0 mi South 8.1 mph - N/A   Clear
2:55 PM 82.4 °F 84.2 °F 65.5 °F 56% 29.90 in 10.0 mi South 8.1 mph - N/A   Clear
3:15 PM 82.6 °F 84.9 °F 66.2 °F 58% 29.90 in 10.0 mi SSW 6.9 mph - N/A   Clear
3:35 PM 82.6 °F 85.1 °F 67.1 °F 59% 29.91 in 10.0 mi SSW 6.9 mph - N/A   Clear
3:55 PM 82.8 °F 84.9 °F 66.0 °F 57% 29.90 in 10.0 mi SW 10.4 mph - N/A   Clear
4:15 PM 82.9 °F 85.6 °F 67.1 °F 59% 29.90 in 10.0 mi South 10.4 mph - N/A   Clear
4:35 PM 82.6 °F 85.1 °F 66.9 °F 59% 29.90 in 10.0 mi South 9.2 mph - N/A   Clear
4:55 PM 83.1 °F 86.6 °F 68.7 °F 62% 29.90 in 10.0 mi South 8.1 mph - N/A   Scattered Clouds
5:15 PM 82.4 °F 85.4 °F 68.4 °F 62% 29.90 in 10.0 mi South 6.9 mph - N/A   Scattered Clouds
5:35 PM 82.4 °F 85.4 °F 68.2 °F 62% 29.90 in 10.0 mi South 8.1 mph - N/A   Scattered Clouds
5:55 PM 81.9 °F 85.0 °F 68.7 °F 64% 29.90 in 10.0 mi South 8.1 mph - N/A   Clear
6:15 PM 81.0 °F 84.4 °F 69.8 °F 69% 29.89 in 10.0 mi South 8.1 mph - N/A   Clear
6:35 PM 79.3 °F - 69.8 °F 72% 29.89 in 10.0 mi South 5.8 mph - N/A   Clear
6:55 PM 77.2 °F - 69.8 °F 78% 29.89 in 10.0 mi South 4.6 mph - N/A   Clear
7:15 PM 75.9 °F - 69.8 °F 81% 29.88 in 10.0 mi SSE 5.8 mph - N/A   Clear
7:35 PM 74.3 °F - 69.6 °F 85% 29.87 in 10.0 mi SSE 5.8 mph - N/A   Clear
8:15 PM 73.0 °F - 69.4 °F 88% 29.86 in 10.0 mi SSE 6.9 mph - N/A   Clear
8:35 PM 72.5 °F - 69.3 °F 90% 29.85 in 10.0 mi SSE 6.9 mph - N/A   Clear
8:55 PM 72.1 °F - 69.3 °F 91% 29.84 in 10.0 mi SSE 5.8 mph - N/A   Clear
9:15 PM 71.6 °F - 69.1 °F 92% 29.84 in 10.0 mi SSE 5.8 mph - N/A   Clear
9:35 PM 71.4 °F - 68.9 °F 92% 29.86 in 10.0 mi South 4.6 mph - N/A   Clear
9:55 PM 70.2 °F - 68.0 °F 93% 29.86 in 7.0 mi SSE 5.8 mph - N/A   Clear
10:15 PM 70.7 °F - 68.5 °F 93% 29.86 in 7.0 mi South 5.8 mph - N/A   Clear
10:35 PM 70.9 °F - 68.9 °F 93% 29.86 in 7.0 mi South 8.1 mph - N/A   Clear
11:15 PM 70.7 °F - 68.2 °F 92% 29.86 in 7.0 mi SSE 5.8 mph - N/A   Clear
11:35 PM 70.2 °F - 68.0 °F 93% 29.85 in 7.0 mi SSE 6.9 mph - N/A   Clear
11:55 PM 70.7 °F - 68.5 °F 93% 29.86 in 7.0 mi South 6.9 mph - N/A   Clear